Simultaneous Nadir Overpasses (SNOs) Predictions

Prediction of SNOs between AQUA and GOES-15 Satellite Orbit:

Table of predicted SNOs for the next 14.0 days since TLE Epoch: 5/6/2016
Index Date Time (AQUA) AQUA Lat,Lon GOES-15 Lat,Lon Distance(km) Time Diff (sec)
1 05/07/2016 22:29:34 0.28,-133.52 -0.05,-135.17 188.10 80
2 05/08/2016 10:50:49 0.82,-138.67 0.05,-135.17 399.07 80
3 05/10/2016 10:38:35 0.16,-135.71 0.05,-135.12 67.36 80
4 05/12/2016 10:26:20 -0.44,-132.74 0.05,-135.06 264.15 80
5 05/12/2016 22:47:43 -0.67,-137.92 -0.04,-135.04 328.30 80
6 05/14/2016 22:35:28 -0.06,-134.95 -0.05,-134.98 3.62 80
7 05/16/2016 22:23:13 0.56,-131.98 -0.05,-134.92 334.07 80
8 05/17/2016 10:44:27 0.53,-137.14 0.04,-134.92 253.04 80
9 05/19/2016 10:32:12 -0.09,-134.17 0.04,-134.85 77.29 80




NCC Satellite Simultaneous Nadir Overpasses (SNOs) Prediction Service
